Time,TemperatureF,DewpointF,PressureIn,WindDirection,WindDirectionDegrees,WindSpeedMPH,WindSpeedGustMPH,Humidity,HourlyPrecipIn,Conditions,Clouds,dailyrainin,SoftwareType,DateUTC
2013-06-27 00:01:00,68.9,68.6,29.86,SW,225,4.6,4.6,99,0.00,RA,,0.00,WeatherDisplay:10.37,2013-06-27 04:01:00,
2013-06-27 00:02:00,68.9,68.6,29.85,SW,225,2.3,0.0,99,0.00,RA,,0.00,WeatherDisplay:10.37,2013-06-27 04:02:00,
2013-06-27 00:04:00,68.9,68.6,29.85,SW,222,3.5,3.5,99,0.00,RA,,0.00,WeatherDisplay:10.37,2013-06-27 04:04:00,
2013-06-27 00:09:00,68.9,68.6,29.85,SW,215,3.5,3.5,99,0.00,RA,,0.00,WeatherDisplay:10.37,2013-06-27 04:09:00,
2013-06-27 00:14:00,69.0,68.7,29.85,SW,215,0.0,0.0,99,0.00,,,0.00,WeatherDisplay:10.37,2013-06-27 04:14:00,
2013-06-27 00:19:00,68.9,68.6,29.85,WSW,253,5.0,5.0,99,0.00,,,0.00,WeatherDisplay:10.37,2013-06-27 04:19:00,
2013-06-27 00:24:00,68.9,68.6,29.84,SSW,211,5.0,5.0,99,0.00,,,0.00,WeatherDisplay:10.37,2013-06-27 04:24:00,
2013-06-27 00:29:00,68.8,68.5,29.84,West,275,1.2,0.0,99,0.00,,,0.00,WeatherDisplay:10.37,2013-06-27 04:29:00,
2013-06-27 00:34:00,68.8,68.5,29.83,SW,216,2.3,2.3,99,0.00,,,0.00,WeatherDisplay:10.37,2013-06-27 04:34:00,
2013-06-27 00:39:00,68.8,68.5,29.83,WSW,240,5.0,5.0,99,0.00,,,0.00,WeatherDisplay:10.37,2013-06-27 04:39:00,
2013-06-27 00:44:00,68.8,68.5,29.83,WSW,244,3.0,3.0,99,0.00,,,0.00,WeatherDisplay:10.37,2013-06-27 04:44:00,
2013-06-27 00:49:00,68.7,68.4,29.83,WSW,244,3.5,3.5,99,0.00,,,0.00,WeatherDisplay:10.37,2013-06-27 04:49:00,
2013-06-27 00:54:00,68.7,68.4,29.83,WSW,253,6.9,6.9,99,0.00,,,0.00,WeatherDisplay:10.37,2013-06-27 04:54:00,
2013-06-27 00:59:00,68.7,68.4,29.83,WSW,237,3.5,3.5,99,0.00,,,0.00,WeatherDisplay:10.37,2013-06-27 04:59:00,
2013-06-27 01:04:00,68.8,68.5,29.83,SW,226,1.2,0.0,99,0.00,,,0.00,WeatherDisplay:10.37,2013-06-27 05:04:00,
2013-06-27 01:09:00,68.8,68.5,29.82,WSW,242,6.9,6.9,99,0.00,,,0.00,WeatherDisplay:10.37,2013-06-27 05:09:00,
2013-06-27 01:14:00,68.8,68.5,29.82,WSW,241,2.0,2.0,99,0.00,,,0.00,WeatherDisplay:10.37,2013-06-27 05:14:00,
2013-06-27 01:20:00,68.8,68.5,29.82,SW,223,6.9,6.9,99,0.00,,,0.00,WeatherDisplay:10.37,2013-06-27 05:20:00,
2013-06-27 01:25:00,68.7,68.4,29.82,SW,219,2.3,2.3,99,0.00,,,0.00,WeatherDisplay:10.37,2013-06-27 05:25:00,
2013-06-27 01:30:00,68.7,68.4,29.81,SW,219,1.2,1.2,99,0.00,,,0.00,WeatherDisplay:10.37,2013-06-27 05:30:00,
2013-06-27 01:35:00,68.7,68.4,29.81,SW,223,5.8,5.8,99,0.00,,,0.00,WeatherDisplay:10.37,2013-06-27 05:35:00,
2013-06-27 01:40:00,68.7,68.4,29.82,SW,226,3.5,0.0,99,0.00,,,0.00,WeatherDisplay:10.37,2013-06-27 05:40:00,
2013-06-27 01:45:00,68.7,68.4,29.82,SW,221,1.2,0.0,99,0.00,,,0.00,WeatherDisplay:10.37,2013-06-27 05:45:00,
2013-06-27 01:50:00,68.8,68.5,29.82,WSW,243,10.4,10.4,99,0.00,,,0.00,WeatherDisplay:10.37,2013-06-27 05:50:00,
2013-06-27 01:55:00,68.8,68.5,29.82,WSW,238,3.5,3.5,99,0.00,,,0.00,WeatherDisplay:10.37,2013-06-27 05:55:00,
2013-06-27 02:00:00,68.8,68.5,29.82,SW,221,6.0,6.0,99,0.00,,,0.00,WeatherDisplay:10.37,2013-06-27 06:00:00,
2013-06-27 02:05:00,68.9,68.6,29.82,WSW,238,4.6,4.6,99,0.00,,,0.00,WeatherDisplay:10.37,2013-06-27 06:05:00,
2013-06-27 02:10:00,68.9,68.6,29.82,SW,229,4.6,4.6,99,0.00,,,0.00,WeatherDisplay:10.37,2013-06-27 06:10:00,
2013-06-27 02:15:00,69.0,68.7,29.82,SW,233,3.5,3.5,99,0.00,,,0.00,WeatherDisplay:10.37,2013-06-27 06:15:00,
2013-06-27 02:20:00,69.0,68.7,29.81,SW,222,5.8,5.8,99,0.00,,,0.00,WeatherDisplay:10.37,2013-06-27 06:20:00,
2013-06-27 02:25:00,69.0,68.7,29.81,SW,226,10.4,10.4,99,0.00,,,0.00,WeatherDisplay:10.37,2013-06-27 06:25:00,
2013-06-27 02:30:00,69.1,68.8,29.82,SW,217,4.0,4.0,99,0.00,,,0.00,WeatherDisplay:10.37,2013-06-27 06:30:00,
2013-06-27 02:35:00,69.1,68.8,29.82,SW,233,3.5,3.5,99,0.00,,,0.00,WeatherDisplay:10.37,2013-06-27 06:35:00,
2013-06-27 02:40:00,69.1,68.8,29.82,SW,236,6.9,6.9,99,0.00,,,0.00,WeatherDisplay:10.37,2013-06-27 06:40:00,
2013-06-27 02:45:00,69.1,68.8,29.82,SW,221,11.5,11.5,99,0.00,,,0.00,WeatherDisplay:10.37,2013-06-27 06:45:00,
2013-06-27 02:50:00,69.1,68.8,29.82,SW,222,3.0,3.0,99,0.00,,,0.00,WeatherDisplay:10.37,2013-06-27 06:50:00,
2013-06-27 02:55:00,69.1,68.8,29.82,SW,219,4.6,4.6,99,0.00,,,0.00,WeatherDisplay:10.37,2013-06-27 06:55:00,
2013-06-27 03:00:00,69.1,68.8,29.82,WSW,247,5.8,5.8,99,0.00,,,0.00,WeatherDisplay:10.37,2013-06-27 07:00:00,
2013-06-27 03:05:00,69.1,68.8,29.82,SW,230,5.0,5.0,99,0.00,,,0.00,WeatherDisplay:10.37,2013-06-27 07:05:00,
2013-06-27 03:10:00,69.1,68.8,29.82,SW,225,11.5,11.5,99,0.00,,,0.00,WeatherDisplay:10.37,2013-06-27 07:10:00,
2013-06-27 03:15:00,69.1,68.8,29.82,SW,230,2.0,2.0,99,0.00,,,0.00,WeatherDisplay:10.37,2013-06-27 07:15:00,
2013-06-27 03:20:00,69.1,68.8,29.82,SW,230,4.0,4.0,99,0.00,,,0.00,WeatherDisplay:10.37,2013-06-27 07:20:00,
2013-06-27 03:25:00,69.1,68.8,29.81,SW,229,4.6,4.6,99,0.00,,,0.00,WeatherDisplay:10.37,2013-06-27 07:25:00,
2013-06-27 03:30:00,69.1,68.8,29.81,SW,229,3.0,3.0,99,0.00,,,0.00,WeatherDisplay:10.37,2013-06-27 07:30:00,
2013-06-27 03:35:00,69.1,68.8,29.81,SSW,198,6.0,6.0,99,0.00,,,0.00,WeatherDisplay:10.37,2013-06-27 07:35:00,
2013-06-27 03:41:00,69.1,68.8,29.81,SSW,199,2.0,2.0,99,0.00,,,0.00,WeatherDisplay:10.37,2013-06-27 07:41:00,
2013-06-27 03:46:00,69.1,68.8,29.81,SSW,199,1.0,0.0,99,0.00,,,0.00,WeatherDisplay:10.37,2013-06-27 07:46:00,
2013-06-27 03:51:00,69.0,68.7,29.81,SSW,200,5.8,5.8,99,0.00,,,0.00,WeatherDisplay:10.37,2013-06-27 07:51:00,
2013-06-27 03:56:00,69.0,68.7,29.81,SW,215,4.0,4.0,99,0.00,,,0.00,WeatherDisplay:10.37,2013-06-27 07:56:00,
2013-06-27 04:01:00,68.9,68.6,29.81,SW,231,4.0,4.0,99,0.00,,,0.00,WeatherDisplay:10.37,2013-06-27 08:01:00,
2013-06-27 04:06:00,68.9,68.6,29.81,SSW,206,5.8,5.8,99,0.00,,,0.00,WeatherDisplay:10.37,2013-06-27 08:06:00,
2013-06-27 04:11:00,68.9,68.6,29.81,SSW,206,4.0,4.0,99,0.00,,,0.00,WeatherDisplay:10.37,2013-06-27 08:11:00,
2013-06-27 04:16:00,68.9,68.6,29.81,SW,216,4.6,4.6,99,0.00,,,0.00,WeatherDisplay:10.37,2013-06-27 08:16:00,
2013-06-27 04:21:00,68.8,68.5,29.81,SW,214,3.5,3.5,99,0.00,,,0.00,WeatherDisplay:10.37,2013-06-27 08:21:00,
2013-06-27 04:26:00,68.7,68.4,29.81,SW,214,0.0,0.0,99,0.00,,,0.00,WeatherDisplay:10.37,2013-06-27 08:26:00,
2013-06-27 04:31:00,68.7,68.4,29.80,SW,214,3.5,3.5,99,0.00,,,0.00,WeatherDisplay:10.37,2013-06-27 08:31:00,
2013-06-27 04:36:00,68.6,68.3,29.80,SSW,195,5.8,5.8,99,0.00,,,0.00,WeatherDisplay:10.37,2013-06-27 08:36:00,
2013-06-27 04:41:00,68.6,68.3,29.80,SSW,199,4.6,4.6,99,0.00,,,0.00,WeatherDisplay:10.37,2013-06-27 08:41:00,
2013-06-27 04:47:00,68.6,68.3,29.80,SSW,201,3.5,3.5,99,0.00,,,0.00,WeatherDisplay:10.37,2013-06-27 08:47:00,
2013-06-27 04:52:00,68.5,68.2,29.80,SSW,201,1.2,1.2,99,0.00,,,0.00,WeatherDisplay:10.37,2013-06-27 08:52:00,
2013-06-27 04:57:00,68.4,68.1,29.80,SSW,201,3.5,3.5,99,0.00,,,0.00,WeatherDisplay:10.37,2013-06-27 08:57:00,
2013-06-27 05:02:00,68.4,68.1,29.80,SSW,201,0.0,0.0,99,0.00,,,0.00,WeatherDisplay:10.37,2013-06-27 09:02:00,
2013-06-27 05:07:00,68.4,68.1,29.80,SSW,200,3.0,3.0,99,0.00,,,0.00,WeatherDisplay:10.37,2013-06-27 09:07:00,
2013-06-27 05:12:00,68.4,68.1,29.80,SSW,201,2.3,2.3,99,0.00,,,0.00,WeatherDisplay:10.37,2013-06-27 09:12:00,
2013-06-27 05:17:00,68.3,68.0,29.80,SSW,201,2.3,0.0,99,0.00,,,0.00,WeatherDisplay:10.37,2013-06-27 09:17:00,
2013-06-27 05:22:00,68.2,67.9,29.80,SSW,200,0.0,0.0,99,0.00,,,0.00,WeatherDisplay:10.37,2013-06-27 09:22:00,
2013-06-27 05:27:00,68.2,67.9,29.80,SSW,201,0.0,0.0,99,0.00,,,0.00,WeatherDisplay:10.37,2013-06-27 09:27:00,
2013-06-27 05:32:00,68.2,67.9,29.79,SSW,201,0.0,0.0,99,0.00,,,0.00,WeatherDisplay:10.37,2013-06-27 09:32:00,
2013-06-27 05:37:00,68.1,67.8,29.79,SSW,201,5.0,5.0,99,0.00,,,0.00,WeatherDisplay:10.37,2013-06-27 09:37:00,
2013-06-27 05:42:00,68.1,67.8,29.78,SSW,200,3.5,3.5,99,0.00,,,0.00,WeatherDisplay:10.37,2013-06-27 09:42:00,
2013-06-27 05:47:00,68.1,67.8,29.79,SSW,201,3.5,3.5,99,0.00,,,0.00,WeatherDisplay:10.37,2013-06-27 09:47:00,
2013-06-27 05:52:00,68.1,67.8,29.78,SSW,201,0.0,0.0,99,0.00,,,0.00,WeatherDisplay:10.37,2013-06-27 09:52:00,
2013-06-27 05:57:00,68.0,67.7,29.78,WSW,240,2.3,2.3,99,0.00,,,0.00,WeatherDisplay:10.37,2013-06-27 09:57:00,
2013-06-27 06:02:00,68.0,67.7,29.79,WSW,240,0.0,0.0,99,0.00,,,0.00,WeatherDisplay:10.37,2013-06-27 10:02:00,
2013-06-27 06:07:00,68.0,67.7,29.79,WSW,240,3.0,3.0,99,0.00,,,0.00,WeatherDisplay:10.37,2013-06-27 10:07:00,
2013-06-27 06:12:00,68.0,67.7,29.79,WSW,240,1.2,0.0,99,0.00,,,0.00,WeatherDisplay:10.37,2013-06-27 10:12:00,
2013-06-27 06:17:00,68.1,67.8,29.79,WSW,240,1.2,0.0,99,0.00,,,0.00,WeatherDisplay:10.37,2013-06-27 10:17:00,
2013-06-27 06:22:00,68.1,67.8,29.79,WSW,240,3.5,3.5,99,0.00,,,0.00,WeatherDisplay:10.37,2013-06-27 10:22:00,
2013-06-27 06:27:00,68.1,67.8,29.79,WSW,240,4.0,4.0,99,0.00,,,0.00,WeatherDisplay:10.37,2013-06-27 10:27:00,
2013-06-27 06:32:00,68.2,67.9,29.80,WSW,240,3.5,3.5,99,0.00,,,0.00,WeatherDisplay:10.37,2013-06-27 10:32:00,
2013-06-27 06:37:00,68.4,68.1,29.79,SW,232,3.5,3.5,99,0.00,,,0.00,WeatherDisplay:10.37,2013-06-27 10:37:00,
2013-06-27 06:42:00,68.5,68.2,29.79,SSW,193,3.5,3.5,99,0.00,,,0.00,WeatherDisplay:10.37,2013-06-27 10:42:00,
2013-06-27 06:47:00,68.7,68.4,29.79,SSW,193,2.3,2.3,99,0.00,,,0.00,WeatherDisplay:10.37,2013-06-27 10:47:00,
2013-06-27 06:52:00,68.7,68.4,29.79,SSW,192,5.8,5.8,99,0.00,,,0.00,WeatherDisplay:10.37,2013-06-27 10:52:00,
2013-06-27 06:57:00,68.8,68.5,29.79,SSW,192,3.5,3.5,99,0.00,,,0.00,WeatherDisplay:10.37,2013-06-27 10:57:00,
2013-06-27 07:02:00,69.0,68.7,29.79,SSW,195,5.0,5.0,99,0.00,,,0.00,WeatherDisplay:10.37,2013-06-27 11:02:00,
2013-06-27 07:07:00,69.2,68.9,29.79,WSW,240,4.0,4.0,99,0.00,,,0.00,WeatherDisplay:10.37,2013-06-27 11:07:00,
2013-06-27 07:12:00,69.3,69.0,29.79,SSW,192,4.0,4.0,99,0.00,,,0.00,WeatherDisplay:10.37,2013-06-27 11:12:00,
2013-06-27 07:17:00,69.4,69.1,29.79,SSW,200,5.8,5.8,99,0.00,,,0.00,WeatherDisplay:10.37,2013-06-27 11:17:00,
2013-06-27 07:22:00,69.6,69.3,29.78,SW,218,2.3,0.0,99,0.00,,,0.00,WeatherDisplay:10.37,2013-06-27 11:22:00,
2013-06-27 07:27:00,69.8,69.5,29.78,SSW,211,4.6,4.6,99,0.00,,,0.00,WeatherDisplay:10.37,2013-06-27 11:27:00,
2013-06-27 07:32:00,69.9,69.6,29.78,SSW,205,4.0,4.0,99,0.00,,,0.00,WeatherDisplay:10.37,2013-06-27 11:32:00,
2013-06-27 07:37:00,70.2,69.9,29.78,SSW,207,5.8,5.8,99,0.00,,,0.00,WeatherDisplay:10.37,2013-06-27 11:37:00,
2013-06-27 07:43:00,70.4,70.1,29.78,SSW,206,3.5,3.5,99,0.00,,,0.00,WeatherDisplay:10.37,2013-06-27 11:43:00,
2013-06-27 07:48:00,70.6,70.3,29.79,SSW,211,9.0,9.0,99,0.00,,,0.00,WeatherDisplay:10.37,2013-06-27 11:48:00,
2013-06-27 07:53:00,70.8,70.5,29.78,SSW,210,7.0,7.0,99,0.00,,,0.00,WeatherDisplay:10.37,2013-06-27 11:53:00,
2013-06-27 07:58:00,70.9,70.6,29.79,SSW,201,10.4,10.4,99,0.00,,,0.00,WeatherDisplay:10.37,2013-06-27 11:58:00,
2013-06-27 08:03:00,71.1,70.8,29.79,SSW,213,7.0,7.0,99,0.00,,,0.00,WeatherDisplay:10.37,2013-06-27 12:03:00,
2013-06-27 08:08:00,71.2,70.9,29.78,SSW,211,4.6,4.6,99,0.00,,,0.00,WeatherDisplay:10.37,2013-06-27 12:08:00,
2013-06-27 08:13:00,71.3,71.0,29.78,SW,221,6.9,6.9,99,0.00,,,0.00,WeatherDisplay:10.37,2013-06-27 12:13:00,
2013-06-27 08:18:00,71.6,71.3,29.78,SW,218,8.0,8.0,99,0.00,,,0.00,WeatherDisplay:10.37,2013-06-27 12:18:00,
2013-06-27 08:24:00,71.7,71.4,29.78,SW,217,10.4,10.4,99,0.00,,,0.00,WeatherDisplay:10.37,2013-06-27 12:24:00,
2013-06-27 08:29:00,72.0,71.7,29.78,SSW,202,5.8,5.8,99,0.00,,,0.00,WeatherDisplay:10.37,2013-06-27 12:29:00,
2013-06-27 08:34:00,72.2,71.9,29.77,South,189,11.5,11.5,99,0.00,,,0.00,WeatherDisplay:10.37,2013-06-27 12:34:00,
2013-06-27 08:39:00,72.3,72.0,29.77,SSW,202,10.4,10.4,99,0.00,,,0.00,WeatherDisplay:10.37,2013-06-27 12:39:00,
2013-06-27 08:44:00,72.5,72.2,29.77,SSW,210,8.0,8.0,99,0.00,,,0.00,WeatherDisplay:10.37,2013-06-27 12:44:00,
2013-06-27 08:49:00,72.7,72.4,29.77,SSW,194,11.5,11.5,99,0.00,,,0.00,WeatherDisplay:10.37,2013-06-27 12:49:00,
2013-06-27 08:54:00,72.9,72.6,29.77,South,179,8.1,8.1,99,0.00,,,0.00,WeatherDisplay:10.37,2013-06-27 12:54:00,
2013-06-27 08:59:00,73.0,72.7,29.77,SW,229,6.9,6.9,99,0.00,,,0.00,WeatherDisplay:10.37,2013-06-27 12:59:00,
2013-06-27 09:04:00,73.3,73.0,29.77,South,172,9.2,9.2,99,0.00,,,0.00,WeatherDisplay:10.37,2013-06-27 13:04:00,
2013-06-27 09:09:00,73.6,73.3,29.77,South,171,11.5,11.5,99,0.00,,,0.00,WeatherDisplay:10.37,2013-06-27 13:09:00,
2013-06-27 09:14:00,73.8,73.5,29.77,SW,217,10.4,10.4,99,0.00,,,0.00,WeatherDisplay:10.37,2013-06-27 13:14:00,
2013-06-27 09:19:00,73.8,73.5,29.78,SSW,198,9.2,9.2,99,0.00,,,0.00,WeatherDisplay:10.37,2013-06-27 13:19:00,
2013-06-27 09:24:00,73.8,73.5,29.78,SW,222,5.0,5.0,99,0.00,,,0.00,WeatherDisplay:10.37,2013-06-27 13:24:00,
2013-06-27 09:29:00,74.0,73.4,29.77,SW,214,9.2,9.2,98,0.00,,,0.00,WeatherDisplay:10.37,2013-06-27 13:29:00,
2013-06-27 09:34:00,74.4,73.8,29.77,SSW,211,8.1,8.1,98,0.00,,,0.00,WeatherDisplay:10.37,2013-06-27 13:34:00,
2013-06-27 09:39:00,74.9,74.3,29.78,SW,222,10.4,10.4,98,0.00,,,0.00,WeatherDisplay:10.37,2013-06-27 13:39:00,
2013-06-27 09:44:00,75.1,74.5,29.78,SSW,207,10.4,10.4,98,0.00,,,0.00,WeatherDisplay:10.37,2013-06-27 13:44:00,
2013-06-27 09:49:00,75.0,73.8,29.77,SW,227,9.2,9.2,96,0.00,,,0.00,WeatherDisplay:10.37,2013-06-27 13:49:00,
2013-06-27 09:54:00,75.0,73.8,29.77,SSW,200,13.8,13.8,96,0.00,,,0.00,WeatherDisplay:10.37,2013-06-27 13:54:00,
2013-06-27 09:59:00,75.0,73.8,29.77,SSW,205,11.5,11.5,96,0.00,,,0.00,WeatherDisplay:10.37,2013-06-27 13:59:00,
2013-06-27 10:04:00,75.1,73.9,29.77,South,180,8.1,8.1,96,0.00,,,0.00,WeatherDisplay:10.37,2013-06-27 14:04:00,
2013-06-27 10:09:00,75.4,74.2,29.76,SSW,192,15.0,15.0,96,0.00,,,0.00,WeatherDisplay:10.37,2013-06-27 14:09:00,
2013-06-27 10:14:00,75.9,74.4,29.76,South,186,10.4,10.4,95,0.00,,,0.00,WeatherDisplay:10.37,2013-06-27 14:14:00,
2013-06-27 10:19:00,77.0,75.5,29.76,South,189,11.5,11.5,95,0.00,,,0.00,WeatherDisplay:10.37,2013-06-27 14:19:00,
2013-06-27 10:24:00,77.1,74.9,29.75,SSW,208,10.4,10.4,93,0.00,,,0.00,WeatherDisplay:10.37,2013-06-27 14:24:00,
2013-06-27 10:29:00,77.7,75.5,29.75,SW,214,17.3,17.3,93,0.00,,,0.00,WeatherDisplay:10.37,2013-06-27 14:29:00,
2013-06-27 10:34:00,77.8,75.0,29.75,West,265,19.6,19.6,91,0.00,,,0.00,WeatherDisplay:10.37,2013-06-27 14:34:00,
2013-06-27 10:39:00,78.2,75.7,29.75,South,174,13.8,13.8,92,0.00,,,0.00,WeatherDisplay:10.37,2013-06-27 14:39:00,
2013-06-27 10:44:00,78.7,75.2,29.75,SW,230,15.0,15.0,89,0.00,,,0.00,WeatherDisplay:10.37,2013-06-27 14:44:00,
2013-06-27 10:49:00,78.7,75.2,29.75,SSW,192,15.0,15.0,89,0.00,,,0.00,WeatherDisplay:10.37,2013-06-27 14:49:00,
2013-06-27 10:54:00,79.2,76.3,29.75,SSW,200,9.0,9.0,91,0.00,,,0.00,WeatherDisplay:10.37,2013-06-27 14:54:00,
2013-06-27 10:59:00,79.4,75.2,29.75,SSW,213,14.0,14.0,87,0.00,,,0.00,WeatherDisplay:10.37,2013-06-27 14:59:00,
2013-06-27 11:04:00,80.0,76.1,29.75,SW,221,13.0,13.0,88,0.00,,,0.00,WeatherDisplay:10.37,2013-06-27 15:04:00,
2013-06-27 11:09:00,80.2,76.0,29.75,WSW,247,10.4,10.4,87,0.00,,,0.00,WeatherDisplay:10.37,2013-06-27 15:09:00,
2013-06-27 11:14:00,80.8,76.2,29.76,SSE,167,13.8,13.8,86,0.00,,,0.00,WeatherDisplay:10.37,2013-06-27 15:14:00,
2013-06-27 11:19:00,80.8,75.5,29.75,SSE,157,13.8,13.8,84,0.00,,,0.00,WeatherDisplay:10.37,2013-06-27 15:19:00,
2013-06-27 11:24:00,81.4,76.5,29.76,SSW,207,11.5,11.5,85,0.00,,,0.00,WeatherDisplay:10.37,2013-06-27 15:24:00,
2013-06-27 11:29:00,81.7,76.4,29.75,SSW,203,13.8,13.8,84,0.00,,,0.00,WeatherDisplay:10.37,2013-06-27 15:29:00,
2013-06-27 11:34:00,82.0,76.7,29.76,WSW,249,11.5,11.5,84,0.00,,,0.00,WeatherDisplay:10.37,2013-06-27 15:34:00,
2013-06-27 11:39:00,82.8,77.5,29.76,SSW,211,10.4,10.4,84,0.00,,,0.00,WeatherDisplay:10.37,2013-06-27 15:39:00,
2013-06-27 11:44:00,83.0,76.9,29.76,SSW,192,10.0,10.0,82,0.00,,,0.00,WeatherDisplay:10.37,2013-06-27 15:44:00,
2013-06-27 11:49:00,82.7,75.9,29.76,SSW,210,11.5,11.5,80,0.00,,,0.00,WeatherDisplay:10.37,2013-06-27 15:49:00,
2013-06-27 11:54:00,82.7,76.3,29.76,SSW,192,11.0,11.0,81,0.00,,,0.00,WeatherDisplay:10.37,2013-06-27 15:54:00,
2013-06-27 11:59:00,84.1,77.6,29.76,SSW,207,10.4,10.4,81,0.00,,,0.00,WeatherDisplay:10.37,2013-06-27 15:59:00,
2013-06-27 12:04:00,83.7,76.1,29.76,SSW,206,10.4,10.4,78,0.00,,,0.00,WeatherDisplay:10.37,2013-06-27 16:04:00,
2013-06-27 12:09:00,82.8,75.2,29.76,West,260,9.2,9.2,78,0.00,,,0.00,WeatherDisplay:10.37,2013-06-27 16:09:00,
2013-06-27 12:14:00,82.2,75.4,29.76,SSW,199,6.0,6.0,80,0.00,,,0.00,WeatherDisplay:10.37,2013-06-27 16:14:00,
2013-06-27 12:19:00,82.2,75.8,29.75,SW,219,4.6,4.6,81,0.00,,,0.00,WeatherDisplay:10.37,2013-06-27 16:19:00,
2013-06-27 12:24:00,82.3,75.9,29.75,SSW,202,5.8,5.8,81,0.00,,,0.00,WeatherDisplay:10.37,2013-06-27 16:24:00,
2013-06-27 12:29:00,82.6,75.8,29.75,SW,231,11.5,11.5,80,0.00,,,0.00,WeatherDisplay:10.37,2013-06-27 16:29:00,
2013-06-27 12:34:00,82.9,75.7,29.75,SW,222,11.0,11.0,79,0.00,,,0.00,WeatherDisplay:10.37,2013-06-27 16:34:00,
2013-06-27 12:39:00,83.4,75.8,29.75,SW,221,11.5,11.5,78,0.00,,,0.00,WeatherDisplay:10.37,2013-06-27 16:39:00,
2013-06-27 12:44:00,84.3,77.1,29.75,SW,215,9.2,9.2,79,0.00,,,0.00,WeatherDisplay:10.37,2013-06-27 16:44:00,
2013-06-27 12:50:00,84.6,75.8,29.75,South,191,14.0,14.0,75,0.00,,,0.00,WeatherDisplay:10.37,2013-06-27 16:50:00,
2013-06-27 12:55:00,85.2,77.2,29.75,SW,215,11.5,11.5,77,0.00,,,0.00,WeatherDisplay:10.37,2013-06-27 16:55:00,
2013-06-27 13:00:00,84.6,74.6,29.75,West,272,6.0,6.0,72,0.00,,,0.00,WeatherDisplay:10.37,2013-06-27 17:00:00,
2013-06-27 13:05:00,85.2,75.6,29.75,SSW,198,13.0,13.0,73,0.00,,,0.00,WeatherDisplay:10.37,2013-06-27 17:05:00,
2013-06-27 13:10:00,85.4,75.8,29.74,NW,306,11.0,11.0,73,0.00,,,0.00,WeatherDisplay:10.37,2013-06-27 17:10:00,
2013-06-27 13:15:00,85.6,75.1,29.74,SW,223,11.5,11.5,71,0.00,,,0.00,WeatherDisplay:10.37,2013-06-27 17:15:00,
2013-06-27 13:20:00,86.5,77.6,29.74,SW,218,9.2,9.2,75,0.00,,,0.00,WeatherDisplay:10.37,2013-06-27 17:20:00,
2013-06-27 13:25:00,86.2,74.4,29.74,SSW,206,12.7,12.7,68,0.00,,,0.00,WeatherDisplay:10.37,2013-06-27 17:25:00,
2013-06-27 13:30:00,85.6,74.7,29.75,SW,223,9.2,9.2,70,0.00,,,0.00,WeatherDisplay:10.37,2013-06-27 17:30:00,
2013-06-27 13:35:00,85.2,74.7,29.74,SW,222,6.9,6.9,71,0.00,,,0.00,WeatherDisplay:10.37,2013-06-27 17:35:00,
2013-06-27 13:40:00,85.6,74.3,29.74,South,179,6.0,6.0,69,0.00,,,0.00,WeatherDisplay:10.37,2013-06-27 17:40:00,
2013-06-27 13:45:00,85.1,73.3,29.74,West,261,11.5,11.5,68,0.00,,,0.00,WeatherDisplay:10.37,2013-06-27 17:45:00,
2013-06-27 13:50:00,85.8,75.3,29.74,SW,215,10.0,10.0,71,0.00,,,0.00,WeatherDisplay:10.37,2013-06-27 17:50:00,
2013-06-27 13:55:00,86.3,75.4,29.73,SSW,196,11.0,11.0,70,0.00,,,0.00,WeatherDisplay:10.37,2013-06-27 17:55:00,
2013-06-27 14:00:00,86.7,76.6,29.73,West,278,9.2,9.2,72,0.00,,,0.00,WeatherDisplay:10.37,2013-06-27 18:00:00,
2013-06-27 14:05:00,87.2,74.5,29.73,WSW,254,13.8,13.8,66,0.00,,,0.00,WeatherDisplay:10.37,2013-06-27 18:05:00,
2013-06-27 14:10:00,87.7,75.8,29.73,WNW,290,7.0,7.0,68,0.00,,,0.00,WeatherDisplay:10.37,2013-06-27 18:10:00,
2013-06-27 14:16:00,87.5,74.3,29.72,SW,224,4.6,4.6,65,0.00,,,0.00,WeatherDisplay:10.37,2013-06-27 18:16:00,
2013-06-27 14:21:00,87.5,75.2,29.72,South,190,6.0,6.0,67,0.00,,,0.00,WeatherDisplay:10.37,2013-06-27 18:21:00,
2013-06-27 14:26:00,87.5,73.8,29.72,WSW,242,10.4,10.4,64,0.00,,,0.00,WeatherDisplay:10.37,2013-06-27 18:26:00,
2013-06-27 14:31:00,87.8,74.1,29.72,SW,227,6.0,6.0,64,0.00,,,0.00,WeatherDisplay:10.37,2013-06-27 18:31:00,
2013-06-27 14:36:00,88.0,75.7,29.71,South,182,6.0,6.0,67,0.00,,,0.00,WeatherDisplay:10.37,2013-06-27 18:36:00,
2013-06-27 14:41:00,87.0,75.2,29.71,SSW,203,9.0,9.0,68,0.00,,,0.00,WeatherDisplay:10.37,2013-06-27 18:41:00,
2013-06-27 14:46:00,87.1,76.1,29.71,SW,224,12.0,12.0,70,0.00,,,0.00,WeatherDisplay:10.37,2013-06-27 18:46:00,
2013-06-27 14:51:00,87.8,77.2,29.70,SW,218,6.0,6.0,71,0.00,,,0.00,WeatherDisplay:10.37,2013-06-27 18:51:00,
2013-06-27 14:56:00,88.3,75.0,29.70,SSW,211,13.8,13.8,65,0.00,,,0.00,WeatherDisplay:10.37,2013-06-27 18:56:00,
2013-06-27 15:01:00,88.1,76.6,29.69,SSW,205,9.2,9.2,69,0.00,,,0.00,WeatherDisplay:10.37,2013-06-27 19:01:00,
2013-06-27 15:06:00,88.2,74.9,29.70,SSW,199,11.5,11.5,65,0.00,,,0.00,WeatherDisplay:10.37,2013-06-27 19:06:00,
2013-06-27 15:11:00,87.9,73.7,29.69,SW,215,12.0,12.0,63,0.00,,,0.00,WeatherDisplay:10.37,2013-06-27 19:11:00,
2013-06-27 15:16:00,87.9,75.1,29.69,WSW,249,6.9,6.9,66,0.00,,,0.00,WeatherDisplay:10.37,2013-06-27 19:16:00,
2013-06-27 15:21:00,87.9,75.6,29.69,South,188,11.0,11.0,67,0.00,,,0.00,WeatherDisplay:10.37,2013-06-27 19:21:00,
2013-06-27 15:26:00,88.2,75.4,29.68,SSW,192,17.3,17.3,66,0.00,,,0.00,WeatherDisplay:10.37,2013-06-27 19:26:00,
2013-06-27 15:31:00,87.8,74.1,29.69,SW,215,15.0,15.0,64,0.00,,,0.00,WeatherDisplay:10.37,2013-06-27 19:31:00,
2013-06-27 15:36:00,87.5,73.3,29.69,SW,225,5.8,5.8,63,0.00,,,0.00,WeatherDisplay:10.37,2013-06-27 19:36:00,
2013-06-27 15:41:00,87.7,73.5,29.68,SW,215,16.1,16.1,63,0.00,,,0.00,WeatherDisplay:10.37,2013-06-27 19:41:00,
2013-06-27 15:46:00,87.4,74.6,29.68,SW,223,3.5,0.0,66,0.00,,,0.00,WeatherDisplay:10.37,2013-06-27 19:46:00,
2013-06-27 15:51:00,87.5,73.8,29.68,South,185,12.7,12.7,64,0.00,,,0.00,WeatherDisplay:10.37,2013-06-27 19:51:00,
2013-06-27 15:56:00,87.5,73.8,29.68,WSW,254,17.0,17.0,64,0.00,,,0.00,WeatherDisplay:10.37,2013-06-27 19:56:00,
2013-06-27 16:02:00,87.4,74.2,29.68,SW,223,15.0,15.0,65,0.00,,,0.00,WeatherDisplay:10.37,2013-06-27 20:02:00,
2013-06-27 16:07:00,86.9,73.7,29.67,SW,215,10.0,10.0,65,0.00,,,0.00,WeatherDisplay:10.37,2013-06-27 20:07:00,
2013-06-27 16:12:00,86.3,73.6,29.67,SSW,207,13.0,13.0,66,0.00,,,0.00,WeatherDisplay:10.37,2013-06-27 20:12:00,
2013-06-27 16:17:00,86.8,73.2,29.66,SSW,209,13.8,13.8,64,0.00,,,0.00,WeatherDisplay:10.37,2013-06-27 20:17:00,
2013-06-27 16:22:00,87.0,74.7,29.66,SW,219,10.0,10.0,67,0.00,,,0.00,WeatherDisplay:10.37,2013-06-27 20:22:00,
2013-06-27 16:27:00,87.4,75.1,29.67,SSW,213,10.4,10.4,67,0.00,,,0.00,WeatherDisplay:10.37,2013-06-27 20:27:00,
2013-06-27 16:32:00,87.6,74.8,29.66,SSW,202,14.0,14.0,66,0.00,,,0.00,WeatherDisplay:10.37,2013-06-27 20:32:00,
2013-06-27 16:37:00,87.6,74.4,29.66,SSW,200,15.0,15.0,65,0.00,,,0.00,WeatherDisplay:10.37,2013-06-27 20:37:00,
2013-06-27 16:42:00,87.6,74.8,29.66,SW,220,10.4,10.4,66,0.00,,,0.00,WeatherDisplay:10.37,2013-06-27 20:42:00,
2013-06-27 16:47:00,87.6,75.3,29.66,SW,219,4.6,4.6,67,0.00,,,0.00,WeatherDisplay:10.37,2013-06-27 20:47:00,
2013-06-27 16:52:00,87.7,75.4,29.66,SSW,195,10.4,10.4,67,0.00,,,0.00,WeatherDisplay:10.37,2013-06-27 20:52:00,
2013-06-27 16:57:00,87.6,75.3,29.66,SW,223,8.1,8.1,67,0.00,,,0.00,WeatherDisplay:10.37,2013-06-27 20:57:00,
2013-06-27 17:02:00,87.5,76.1,29.66,SW,221,9.2,9.2,69,0.00,,,0.00,WeatherDisplay:10.37,2013-06-27 21:02:00,
2013-06-27 17:07:00,87.7,75.4,29.66,WSW,239,6.0,6.0,67,0.00,,,0.00,WeatherDisplay:10.37,2013-06-27 21:07:00,
2013-06-27 17:12:00,87.5,75.2,29.66,SSW,194,11.5,11.5,67,0.00,,,0.00,WeatherDisplay:10.37,2013-06-27 21:12:00,
2013-06-27 17:17:00,87.2,75.3,29.66,SSW,213,8.1,8.1,68,0.00,,,0.00,WeatherDisplay:10.37,2013-06-27 21:17:00,
2013-06-27 17:23:00,87.0,75.6,29.66,SW,227,9.2,9.2,69,0.00,,,0.00,WeatherDisplay:10.37,2013-06-27 21:23:00,
2013-06-27 17:28:00,87.3,76.3,29.66,WSW,246,1.0,0.0,70,0.00,,,0.00,WeatherDisplay:10.37,2013-06-27 21:28:00,
2013-06-27 17:33:00,87.3,75.9,29.66,West,265,10.4,10.4,69,0.00,,,0.00,WeatherDisplay:10.37,2013-06-27 21:33:00,
2013-06-27 17:38:00,87.0,75.6,29.66,SW,230,8.1,8.1,69,0.00,,,0.00,WeatherDisplay:10.37,2013-06-27 21:38:00,
2013-06-27 17:43:00,86.4,75.9,29.66,WSW,254,3.5,3.5,71,0.00,,,0.00,WeatherDisplay:10.37,2013-06-27 21:43:00,
2013-06-27 17:49:00,86.6,76.1,29.65,SW,219,4.6,4.6,71,0.00,,,0.00,WeatherDisplay:10.37,2013-06-27 21:49:00,
2013-06-27 17:54:00,86.8,76.3,29.65,SSW,207,3.5,3.5,71,0.00,,,0.00,WeatherDisplay:10.37,2013-06-27 21:54:00,
2013-06-27 17:59:00,86.9,76.4,29.66,SW,236,4.0,4.0,71,0.00,,,0.00,WeatherDisplay:10.37,2013-06-27 21:59:00,
2013-06-27 18:04:00,86.8,76.3,29.66,SW,234,6.9,6.9,71,0.00,,,0.00,WeatherDisplay:10.37,2013-06-27 22:04:00,
2013-06-27 18:09:00,86.7,76.6,29.65,WSW,252,2.0,2.0,72,0.00,,,0.00,WeatherDisplay:10.37,2013-06-27 22:09:00,
2013-06-27 18:14:00,86.6,76.1,29.65,SW,230,6.9,6.9,71,0.00,,,0.00,WeatherDisplay:10.37,2013-06-27 22:14:00,
2013-06-27 18:19:00,86.6,76.1,29.65,South,191,9.2,9.2,71,0.00,,,0.00,WeatherDisplay:10.37,2013-06-27 22:19:00,
2013-06-27 18:24:00,86.2,76.1,29.65,WSW,255,5.8,5.8,72,0.00,,,0.00,WeatherDisplay:10.37,2013-06-27 22:24:00,
2013-06-27 18:29:00,86.0,76.3,29.65,WSW,246,3.5,3.5,73,0.00,,,0.00,WeatherDisplay:10.37,2013-06-27 22:29:00,
2013-06-27 18:34:00,85.7,76.9,29.65,West,267,3.5,3.5,75,0.00,,,0.00,WeatherDisplay:10.37,2013-06-27 22:34:00,
2013-06-27 18:39:00,85.3,76.5,29.65,WSW,257,9.0,9.0,75,0.00,,,0.00,WeatherDisplay:10.37,2013-06-27 22:39:00,
2013-06-27 18:45:00,84.7,76.7,29.64,SW,234,2.0,2.0,77,0.00,,,0.00,WeatherDisplay:10.37,2013-06-27 22:45:00,
2013-06-27 18:50:00,84.2,76.2,29.65,WSW,252,5.8,0.0,77,0.00,,,0.00,WeatherDisplay:10.37,2013-06-27 22:50:00,
2013-06-27 18:55:00,83.6,76.0,29.65,WSW,252,1.0,1.0,78,0.00,,,0.00,WeatherDisplay:10.37,2013-06-27 22:55:00,
2013-06-27 19:00:00,83.3,75.7,29.65,WSW,252,1.0,0.0,78,0.00,,,0.00,WeatherDisplay:10.37,2013-06-27 23:00:00,
2013-06-27 19:05:00,83.0,75.8,29.65,WSW,252,1.0,0.0,79,0.00,,,0.00,WeatherDisplay:10.37,2013-06-27 23:05:00,
2013-06-27 19:10:00,82.8,76.7,29.65,WSW,252,3.5,3.5,82,0.00,,,0.00,WeatherDisplay:10.37,2013-06-27 23:10:00,
2013-06-27 19:15:00,82.7,76.3,29.66,WSW,252,3.5,3.5,81,0.00,,,0.00,WeatherDisplay:10.37,2013-06-27 23:15:00,
2013-06-27 19:20:00,82.6,76.2,29.66,WSW,252,3.5,3.5,81,0.00,,,0.00,WeatherDisplay:10.37,2013-06-27 23:20:00,
2013-06-27 19:26:00,82.7,76.3,29.66,WSW,252,1.2,0.0,81,0.00,,,0.00,WeatherDisplay:10.37,2013-06-27 23:26:00,
2013-06-27 19:31:00,82.5,76.1,29.66,SW,227,6.0,6.0,81,0.00,,,0.00,WeatherDisplay:10.37,2013-06-27 23:31:00,
2013-06-27 19:36:00,82.3,76.3,29.66,SW,227,0.0,0.0,82,0.00,,,0.00,WeatherDisplay:10.37,2013-06-27 23:36:00,
2013-06-27 19:41:00,82.0,76.0,29.66,WNW,288,0.0,0.0,82,0.00,,,0.00,WeatherDisplay:10.37,2013-06-27 23:41:00,
2013-06-27 19:46:00,81.8,76.8,29.66,WSW,253,1.0,1.0,85,0.00,,,0.00,WeatherDisplay:10.37,2013-06-27 23:46:00,
2013-06-27 19:51:00,81.6,76.6,29.66,WSW,253,1.2,0.0,85,0.00,,,0.00,WeatherDisplay:10.37,2013-06-27 23:51:00,
2013-06-27 19:56:00,81.9,76.6,29.66,SSW,213,10.0,10.0,84,0.00,,,0.00,WeatherDisplay:10.37,2013-06-27 23:56:00,
2013-06-27 20:01:00,82.2,76.2,29.66,SW,217,7.0,7.0,82,0.00,,,0.00,WeatherDisplay:10.37,2013-06-28 00:01:00,
2013-06-27 20:06:00,82.2,76.2,29.67,SSE,164,3.5,3.5,82,0.00,,,0.00,WeatherDisplay:10.37,2013-06-28 00:06:00,
2013-06-27 20:12:00,82.1,76.1,29.66,SSW,195,6.9,6.9,82,0.00,,,0.00,WeatherDisplay:10.37,2013-06-28 00:12:00,
2013-06-27 20:17:00,81.9,75.9,29.66,SSW,209,6.9,6.9,82,0.00,,,0.00,WeatherDisplay:10.37,2013-06-28 00:17:00,
2013-06-27 20:22:00,81.6,76.3,29.66,South,188,5.8,5.8,84,0.00,,,0.00,WeatherDisplay:10.37,2013-06-28 00:22:00,
2013-06-27 20:27:00,81.4,76.1,29.66,SSW,211,5.0,5.0,84,0.00,,,0.00,WeatherDisplay:10.37,2013-06-28 00:27:00,
2013-06-27 20:32:00,81.1,75.8,29.66,South,188,6.0,6.0,84,0.00,,,0.00,WeatherDisplay:10.37,2013-06-28 00:32:00,
2013-06-27 20:37:00,80.7,75.4,29.67,SSW,202,7.0,7.0,84,0.00,,,0.00,WeatherDisplay:10.37,2013-06-28 00:37:00,
2013-06-27 20:42:00,80.4,75.5,29.67,SW,229,6.0,6.0,85,0.00,,,0.00,WeatherDisplay:10.37,2013-06-28 00:42:00,
2013-06-27 20:47:00,80.1,75.2,29.67,SW,217,4.6,4.6,85,0.00,,,0.00,WeatherDisplay:10.37,2013-06-28 00:47:00,
2013-06-27 20:53:00,79.6,75.0,29.67,SSW,199,5.0,5.0,86,0.00,,,0.00,WeatherDisplay:10.37,2013-06-28 00:53:00,
2013-06-27 20:59:00,79.3,75.4,29.67,SSW,199,0.0,0.0,88,0.00,,,0.00,WeatherDisplay:10.37,2013-06-28 00:59:00,
2013-06-27 21:04:00,78.6,75.1,29.67,SSW,200,3.5,3.5,89,0.00,,,0.00,WeatherDisplay:10.37,2013-06-28 01:04:00,
2013-06-27 21:09:00,78.1,75.3,29.67,SSW,199,1.0,1.0,91,0.00,,,0.00,WeatherDisplay:10.37,2013-06-28 01:09:00,
2013-06-27 21:14:00,77.7,75.2,29.67,SSW,200,1.2,0.0,92,0.01,RA,,0.01,WeatherDisplay:10.37,2013-06-28 01:14:00,
2013-06-27 21:19:00,77.3,74.8,29.67,SSW,200,0.0,0.0,92,0.01,RA,,0.01,WeatherDisplay:10.37,2013-06-28 01:19:00,
2013-06-27 21:24:00,77.1,74.9,29.67,SSW,200,1.2,0.0,93,0.01,,,0.01,WeatherDisplay:10.37,2013-06-28 01:24:00,
2013-06-27 21:29:00,76.9,74.7,29.67,SSW,200,1.2,0.0,93,0.01,,,0.01,WeatherDisplay:10.37,2013-06-28 01:29:00,
2013-06-27 21:34:00,76.8,74.6,29.68,SSW,200,3.5,3.5,93,0.01,,,0.01,WeatherDisplay:10.37,2013-06-28 01:34:00,
2013-06-27 21:39:00,76.5,74.3,29.68,South,173,5.8,5.8,93,0.01,,,0.01,WeatherDisplay:10.37,2013-06-28 01:39:00,
2013-06-27 21:45:00,76.3,74.1,29.68,South,175,4.6,4.6,93,0.01,,,0.01,WeatherDisplay:10.37,2013-06-28 01:45:00,
2013-06-27 21:51:00,76.3,73.8,29.68,South,184,6.0,6.0,92,0.01,,,0.01,WeatherDisplay:10.37,2013-06-28 01:51:00,
2013-06-27 21:56:00,76.3,73.8,29.68,South,188,10.4,10.4,92,0.01,,,0.01,WeatherDisplay:10.37,2013-06-28 01:56:00,
2013-06-27 22:01:00,76.3,73.8,29.67,SW,227,9.2,9.2,92,0.01,,,0.01,WeatherDisplay:10.37,2013-06-28 02:01:00,
2013-06-27 22:06:00,76.4,73.9,29.67,SW,221,4.6,4.6,92,0.01,,,0.01,WeatherDisplay:10.37,2013-06-28 02:06:00,
2013-06-27 22:11:00,76.2,73.7,29.68,SW,223,4.6,4.6,92,0.01,,,0.01,WeatherDisplay:10.37,2013-06-28 02:11:00,
2013-06-27 22:16:00,76.1,73.9,29.68,SW,217,6.9,6.9,93,0.00,,,0.01,WeatherDisplay:10.37,2013-06-28 02:16:00,
2013-06-27 22:21:00,76.0,73.8,29.68,SW,217,0.0,0.0,93,0.00,,,0.01,WeatherDisplay:10.37,2013-06-28 02:21:00,
2013-06-27 22:26:00,75.9,73.7,29.68,SW,217,0.0,0.0,93,0.00,,,0.01,WeatherDisplay:10.37,2013-06-28 02:26:00,
2013-06-27 22:31:00,75.9,73.7,29.68,SW,217,5.8,5.8,93,0.00,,,0.01,WeatherDisplay:10.37,2013-06-28 02:31:00,
2013-06-27 22:36:00,75.8,73.9,29.68,SW,217,0.0,0.0,94,0.00,,,0.01,WeatherDisplay:10.37,2013-06-28 02:36:00,
2013-06-27 22:41:00,75.6,73.8,29.67,SW,217,0.0,0.0,94,0.00,,,0.01,WeatherDisplay:10.37,2013-06-28 02:41:00,
2013-06-27 22:46:00,75.5,73.7,29.67,SW,217,0.0,0.0,94,0.00,,,0.01,WeatherDisplay:10.37,2013-06-28 02:46:00,
2013-06-27 22:51:00,75.3,73.5,29.67,SW,217,0.0,0.0,94,0.00,,,0.01,WeatherDisplay:10.37,2013-06-28 02:51:00,
2013-06-27 22:56:00,75.1,73.6,29.68,SW,217,0.0,0.0,95,0.00,,,0.01,WeatherDisplay:10.37,2013-06-28 02:56:00,
2013-06-27 23:01:00,74.9,73.4,29.67,SW,217,0.0,0.0,95,0.00,,,0.01,WeatherDisplay:10.37,2013-06-28 03:01:00,
2013-06-27 23:07:00,74.8,73.3,29.68,SW,217,0.0,0.0,95,0.00,,,0.01,WeatherDisplay:10.37,2013-06-28 03:07:00,
2013-06-27 23:12:00,74.7,73.5,29.68,SW,217,0.0,0.0,96,0.00,,,0.01,WeatherDisplay:10.37,2013-06-28 03:12:00,
2013-06-27 23:17:00,74.7,73.5,29.68,SW,217,0.0,0.0,96,0.00,,,0.01,WeatherDisplay:10.37,2013-06-28 03:17:00,
2013-06-27 23:22:00,74.6,73.4,29.68,SW,217,0.0,0.0,96,0.00,,,0.01,WeatherDisplay:10.37,2013-06-28 03:22:00,
2013-06-27 23:27:00,74.7,73.5,29.69,SW,217,3.0,3.0,96,0.00,,,0.01,WeatherDisplay:10.37,2013-06-28 03:27:00,
2013-06-27 23:32:00,74.6,73.4,29.68,SW,217,0.0,0.0,96,0.00,,,0.01,WeatherDisplay:10.37,2013-06-28 03:32:00,
2013-06-27 23:37:00,74.6,73.4,29.69,SW,217,3.5,3.5,96,0.00,,,0.01,WeatherDisplay:10.37,2013-06-28 03:37:00,
2013-06-27 23:42:00,74.7,74.1,29.69,SW,217,3.5,3.5,98,0.00,,,0.01,WeatherDisplay:10.37,2013-06-28 03:42:00,
2013-06-27 23:47:00,74.9,74.3,29.70,SW,229,6.9,6.9,98,0.00,,,0.01,WeatherDisplay:10.37,2013-06-28 03:47:00,
2013-06-27 23:52:00,75.0,74.4,29.69,WNW,301,11.5,11.5,98,0.00,,,0.01,WeatherDisplay:10.37,2013-06-28 03:52:00,
2013-06-27 23:57:00,75.0,73.8,29.69,SW,236,11.5,11.5,96,0.01,RA,,0.02,WeatherDisplay:10.37,2013-06-28 03:57:00,